Powrót do katalogu

STARLINK-35406

AktywnyŁącznośćSSO
NORAD 65795·PAYLOAD·🇺🇸 United States

Wystrzelony Sep 26, 2025 z Vandenberg Space Force Base

Loading…

Następne Przeloty (najbliższe 24 godziny)

TLE

ŚwieżeSource: CelesTrak SupGP

Epoka: Sep 14, 2026, 21:02 UTC

1 65795C 25218E   26257.87687500  .00016133  00000+0  50093-3 0  2573
2 65795  97.2841 115.3972 0001545  93.5633   9.2735 15.33422345    16

Śledź STARLINK-35406 w czasie rzeczywistym z AllMySat

Download on the App Store